Theta_e
331 330 330 331 333 333 332 332 332 331 330 329 330 331 331 331 332 332 332 333 333 333 333 333 333 333 333 333 333 333 333 333 333 333 332 332 332 332 332 331 330 330
330 330 331 332 333 333 332 332 332 331 329 329 330 331 331 332 332 332 332 332 332 332 333 333 333 333 333 334 334 334 333 333 333 333 333 332 332 332 332 331 330 329
329 330 330 331 332 332 332 332 330 329 330 330 330 331 331 332 332 332 332 332 332 332 333 333 333 333 334 334 335 334 334 333 333 333 332 332 332 332 332 331 330 329
327 329 329 330 330 331 331 330 328 328 330 330 330 331 331 332 332 332 332 332 332 332 333 333 334 334 334 334 335 334 334 333 333 333 333 332 332 332 331 330 330 329
327 328 328 329 329 330 329 329 328 327 329 330 331 330 330 331 332 332 332 332 332 332 333 333 333 333 334 334 334 334 334 333 333 333 333 332 331 331 331 330 331 330
328 328 328 328 329 329 329 329 329 328 329 330 331 331 330 331 331 331 332 332 331 332 332 332 333 333 333 334 334 334 333 333 332 332 332 332 331 330 331 331 331 331
326 327 328 328 328 329 329 330 329 329 330 331 331 331 330 330 331 331 331 331 331 331 332 332 332 333 333 333 334 334 333 333 332 331 330 331 331 331 331 330 330 331
325 326 327 328 328 328 329 329 329 329 330 331 331 331 331 331 331 331 331 331 331 331 332 332 332 332 332 332 333 333 333 332 332 330 330 331 331 331 331 330 330 331
324 326 326 327 327 328 328 328 328 329 330 330 331 331 331 331 330 331 331 331 331 331 332 332 332 332 331 331 331 331 332 332 332 331 331 331 332 332 331 330 330 331
323 324 325 326 326 327 327 328 328 328 329 330 331 331 331 330 330 330 330 329 330 331 332 332 332 332 331 330 330 330 330 331 332 332 331 332 332 332 332 331 331 331
322 323 324 325 326 326 326 327 327 327 328 329 330 331 331 330 329 330 330 329 328 329 330 332 332 331 331 330 329 329 330 330 332 332 332 332 332 332 331 331 331 331
319 321 322 324 325 325 326 326 327 327 327 328 329 330 330 329 329 329 329 329 329 328 327 329 331 331 330 329 329 329 329 331 332 332 332 332 332 331 331 331 331 331
315 318 319 321 323 325 325 326 326 327 327 327 328 329 329 329 329 329 329 328 329 329 327 328 330 330 329 329 329 328 329 330 331 331 331 331 331 331 331 330 330 330
312 315 317 318 321 323 324 325 326 326 326 327 327 328 329 329 328 328 328 328 328 329 328 328 330 329 329 329 328 328 329 329 329 328 329 330 331 331 330 330 330 329
311 313 314 316 318 321 323 325 325 325 326 326 326 327 328 328 328 328 328 327 328 328 328 328 329 329 328 328 328 328 328 328 327 327 328 329 330 330 330 330 329 329
310 311 312 314 316 318 321 324 325 325 325 326 326 326 327 327 327 328 327 327 327 327 327 328 328 328 328 328 328 328 327 327 327 327 328 328 329 329 329 329 329 329
309 310 311 312 313 316 318 322 324 325 325 325 325 325 326 326 326 326 327 326 326 326 327 328 328 328 328 328 327 327 326 326 327 327 327 328 328 328 328 327 328 328
308 309 309 310 311 312 315 319 322 324 325 325 325 324 325 325 325 325 326 325 325 326 327 328 328 328 328 327 326 326 326 326 326 326 326 326 327 326 326 326 326 327
307 307 308 309 309 310 313 317 320 322 323 324 324 324 324 324 324 325 325 324 324 325 325 326 327 327 327 327 326 326 325 324 324 324 324 325 325 325 325 325 326 327
306 306 307 307 307 308 311 314 316 317 319 321 322 323 323 322 322 322 321 322 323 323 323 324 326 326 326 326 326 325 323 322 322 323 323 323 323 324 324 325 326 325
305 305 305 305 305 307 309 310 311 313 314 315 317 319 319 319 318 318 318 318 319 319 319 322 324 325 325 325 325 323 320 319 321 322 322 322 323 324 325 325 325 323
304 304 305 304 304 304 305 306 308 309 309 309 311 312 313 314 314 313 314 315 315 314 315 318 320 321 323 323 321 319 317 318 320 322 322 323 324 324 323 323 322 321
304 304 304 304 303 303 303 303 304 305 306 307 308 308 307 308 309 310 310 311 313 313 313 315 317 318 319 319 318 317 317 318 319 320 321 322 322 321 320 320 319 319
304 304 303 303 303 303 303 302 302 302 303 305 306 306 306 306 306 308 309 310 311 312 313 314 316 316 317 317 317 317 317 318 318 319 320 320 319 318 317 317 317 318
303 303 303 303 303 303 302 302 302 301 301 302 303 304 305 306 306 307 309 309 309 311 312 313 314 315 316 317 317 317 317 317 318 319 318 317 316 316 316 316 317 317
302 303 303 303 303 303 302 302 302 301 301 301 301 301 302 303 303 306 308 307 307 309 310 310 311 312 314 315 316 316 317 317 318 318 317 316 314 314 314 314 315 316
Wind_Speed
12 12 11 10 10 10 11 11 10 12 15 15 15 15 15 15 15 15 16 14 15 16 14 14 13 13 14 16 17 16 15 16 16 15 15 16 16 15 15 15 15 16
11 11 11 10 9 9 9 10 10 12 16 20 18 14 15 18 18 19 19 17 16 16 15 15 15 16 17 17 17 16 16 18 17 16 16 16 16 16 15 14 15 16
10 9 9 9 8 9 11 13 14 13 16 19 18 14 15 19 19 19 20 18 15 15 16 17 18 19 19 19 17 16 16 18 18 18 18 17 16 16 14 14 15 17
10 9 8 9 12 15 15 14 13 13 16 18 18 16 16 18 19 19 20 18 16 17 17 17 18 19 20 20 18 17 17 18 18 19 19 17 15 15 14 14 15 16
10 9 9 10 14 17 17 15 13 14 17 18 16 13 13 15 18 19 20 19 19 20 20 19 18 19 20 20 19 17 16 17 18 19 18 15 14 15 14 14 14 14
9 8 9 10 12 14 16 17 16 16 19 18 14 12 14 17 19 21 21 21 21 22 22 22 21 20 20 20 19 18 17 17 18 18 16 14 14 14 13 13 13 13
11 9 9 11 11 13 15 16 16 17 17 15 14 15 18 19 20 22 22 23 23 23 23 23 22 21 20 19 18 18 18 18 19 18 15 14 15 14 13 14 13 13
12 9 8 10 11 12 14 14 14 14 14 14 14 16 18 20 22 23 23 24 24 24 24 23 22 21 20 19 19 19 18 16 17 19 17 16 16 15 15 15 13 12
12 10 9 10 11 11 12 13 13 13 14 16 16 17 18 20 22 23 23 24 24 25 24 23 22 21 20 20 19 20 19 16 16 18 18 18 17 16 15 15 14 13
13 12 11 11 11 12 13 14 13 13 14 15 16 17 18 19 21 22 22 22 23 24 24 23 22 21 20 20 20 20 20 19 18 18 17 17 17 16 15 14 14 14
16 13 13 12 12 12 14 14 14 13 14 13 13 15 16 18 20 22 22 22 22 22 23 23 22 22 21 21 21 20 19 19 18 18 18 17 16 17 16 15 15 15
18 16 15 14 14 14 14 14 13 14 14 14 13 13 14 17 20 22 23 24 23 20 22 23 22 22 22 22 21 20 19 18 18 18 18 17 16 17 17 16 15 15
20 18 17 16 16 15 15 15 13 13 13 13 13 13 13 15 19 22 23 24 25 23 23 25 23 22 22 21 20 19 18 17 17 17 17 17 17 16 16 16 15 16
19 20 19 18 17 16 16 16 14 12 12 12 12 13 14 14 17 21 23 24 25 24 24 26 25 23 21 21 20 18 17 17 17 17 17 18 17 16 16 15 14 16
18 19 20 19 18 16 16 16 15 13 12 12 12 14 15 14 16 20 23 25 25 23 24 26 25 23 21 21 20 18 18 18 18 18 17 17 17 16 15 14 14 15
17 18 20 21 20 18 17 16 17 15 13 13 13 14 16 15 16 20 24 25 25 24 25 26 25 23 21 20 19 18 18 19 19 18 17 17 17 16 15 14 14 14
17 17 19 21 21 21 19 17 16 16 14 14 14 15 18 17 17 21 24 24 24 25 26 26 24 22 20 19 18 17 17 19 19 19 18 17 17 16 15 15 14 14
20 19 20 21 22 22 20 17 15 15 15 15 16 17 18 18 19 22 23 24 24 25 25 25 24 21 19 18 17 17 17 19 19 19 18 18 17 16 15 15 16 16
22 21 21 22 22 22 21 18 14 13 13 14 17 18 18 18 20 22 23 25 25 24 24 24 23 20 18 18 18 17 17 18 19 20 20 19 18 16 16 16 17 18
22 22 21 21 22 23 22 19 15 12 9 9 12 15 16 16 17 18 19 21 22 23 23 23 21 19 17 17 17 18 18 18 19 21 21 20 18 16 16 17 18 18
22 23 21 21 22 22 21 20 16 13 9 5 2 7 10 11 12 13 14 15 17 17 19 20 20 18 17 17 18 19 18 16 16 19 20 19 18 17 16 17 17 17
22 23 22 21 21 19 19 19 18 15 13 10 7 5 4 5 7 7 8 10 11 10 12 15 17 17 17 18 20 20 18 16 16 18 19 19 18 17 17 16 17 18
20 21 22 21 20 19 17 17 17 17 15 13 11 11 11 10 9 10 10 9 10 10 8 9 12 14 16 17 18 19 19 17 18 18 18 19 19 18 18 17 18 20
18 19 20 21 20 19 17 16 16 17 17 15 14 14 15 16 16 16 17 15 13 12 10 9 11 12 14 15 16 18 19 19 19 19 19 20 21 20 20 20 22 24
18 19 18 19 19 18 17 16 15 16 17 18 19 19 19 19 20 22 23 22 18 16 14 13 13 14 14 16 16 18 19 19 20 21 22 22 23 23 24 24 24 25
20 20 18 17 18 17 16 16 16 19 21 19 18 21 25 24 24 28 28 26 23 21 18 16 15 13 12 13 14 16 18 19 20 23 25 25 25 25 26 26 24 23
Wind_Direction
278 273 265 258 253 256 260 252 249 262 265 261 257 248 236 231 228 228 228 225 223 221 219 217 215 212 209 208 211 212 211 211 210 209 210 210 213 217 216 216 221 223
281 281 278 274 270 267 264 253 254 269 266 258 253 242 233 235 230 224 226 228 226 223 220 218 215 213 210 208 210 210 212 215 213 212 212 213 218 222 220 221 227 228
289 285 280 274 264 255 259 261 260 259 253 250 248 233 226 232 228 221 224 226 224 221 218 215 215 214 211 210 210 210 214 217 218 219 220 218 221 223 222 225 228 227
284 279 272 262 256 256 262 267 272 268 252 245 246 242 235 234 230 224 225 223 218 216 213 211 213 213 212 214 214 214 218 221 222 224 224 222 221 222 224 224 224 224
275 269 265 261 263 267 270 268 271 269 255 245 245 247 239 236 237 231 224 219 215 214 213 213 215 216 215 216 218 218 218 218 222 226 224 220 218 219 220 216 213 215
285 272 263 256 260 271 275 269 259 250 245 243 241 232 220 222 233 232 223 217 213 212 214 216 218 219 218 218 218 219 218 216 221 223 216 213 216 215 215 214 211 208
310 296 274 257 255 265 271 266 255 246 242 239 234 227 219 219 227 228 223 218 215 213 214 215 217 217 215 215 215 217 219 218 220 219 210 207 214 213 212 213 209 205
329 316 286 267 265 268 267 262 258 254 248 239 234 233 231 228 229 227 222 220 217 215 214 212 213 213 212 213 214 217 217 212 214 216 210 207 211 208 208 210 205 201
338 325 305 289 282 276 269 263 259 258 253 244 237 236 236 234 232 229 226 223 218 214 214 212 210 211 213 215 216 217 216 211 211 213 210 209 211 206 204 206 202 199
344 329 319 310 298 287 279 276 271 263 254 245 237 235 235 234 232 230 229 229 225 217 214 214 212 212 214 217 217 216 216 216 216 215 211 211 211 206 202 203 203 201
349 335 323 314 301 292 288 287 284 273 259 250 241 236 232 231 231 228 224 224 227 226 222 216 213 215 216 216 216 216 217 218 217 216 214 212 212 209 204 204 207 206
348 337 328 319 304 294 292 290 285 275 264 255 246 237 231 230 230 229 225 218 217 227 232 224 216 217 219 218 217 216 216 215 215 216 216 214 213 211 208 208 211 211
346 339 334 326 311 298 290 286 280 274 268 261 251 241 233 229 228 228 225 219 213 217 227 227 222 220 221 220 217 215 213 211 211 214 216 215 213 213 214 213 212 213
344 340 337 330 321 307 293 285 282 278 274 269 259 248 239 233 230 227 223 219 215 213 220 226 223 220 221 218 214 213 211 209 210 212 214 213 212 213 215 214 212 213
345 343 341 337 331 320 304 294 291 289 283 273 262 255 248 239 233 231 225 220 217 214 217 222 221 218 218 216 213 212 210 210 212 211 210 210 209 210 212 211 210 213
347 346 346 345 341 332 319 306 298 295 290 278 265 258 254 245 235 233 227 220 217 216 216 218 218 217 217 216 215 213 211 211 213 210 207 207 206 206 207 208 209 211
353 351 350 349 347 341 331 319 304 296 292 285 276 266 257 247 236 233 230 222 219 217 215 215 216 215 215 214 213 214 215 215 214 210 207 205 205 205 206 207 207 207
358 356 355 353 352 349 343 332 313 300 295 289 285 274 256 242 233 233 233 228 221 218 216 214 212 211 210 209 209 214 218 219 217 213 208 204 204 205 207 206 204 204
360 359 358 357 358 358 354 347 334 317 303 290 285 275 254 240 231 227 227 225 218 215 214 211 206 204 206 208 211 216 219 220 220 217 211 206 205 205 205 205 203 202
3 2 1 0 3 6 5 1 354 343 325 292 274 261 243 231 224 217 215 214 211 210 209 205 199 198 203 208 211 213 214 215 217 214 207 203 202 202 203 204 203 200
5 4 4 4 6 11 15 15 12 6 2 3 256 229 222 215 210 206 203 202 203 205 202 196 192 194 200 205 205 205 204 203 202 200 195 193 194 196 199 201 200 195
6 6 6 8 9 12 18 23 26 25 23 34 64 101 140 171 177 174 174 181 184 185 188 186 184 187 193 198 198 197 195 191 187 185 184 184 186 189 191 192 189 186
11 10 10 11 12 15 19 24 32 40 41 42 55 69 75 82 101 115 119 130 144 149 156 164 165 172 183 192 195 194 191 187 183 181 180 179 179 179 180 181 180 177
18 16 16 17 17 19 22 26 35 45 52 58 65 72 76 76 82 94 96 96 107 119 122 129 137 147 164 177 185 190 192 190 185 181 176 174 173 171 169 169 168 165
26 25 22 23 24 24 27 33 39 48 55 63 69 76 83 84 83 87 87 82 85 96 102 108 116 127 147 165 175 183 190 192 189 181 172 167 167 165 162 160 160 160
37 37 31 28 29 30 33 37 45 57 62 60 62 70 76 78 78 81 82 78 76 83 86 87 94 107 129 155 169 177 182 186 186 179 170 164 163 159 153 151 152 153